This is the latest recevied weather packets stored in our database for station/object CE3MLB. If no packets are shown the sender has not sent any weather packets the latest 10 day(s).
| Time | Temp. | Humidity | Pressure | Rain* | Wind** | Luminosity | Snow |
|---|---|---|---|---|---|---|---|
| 1778166102 | 15.56° C | 77% | 1013.3 hPa | 0 mm | - | 272 W/m² | - |
| 1778162497 | 15° C | 81% | 1013.2 hPa | 0 mm | - | 199 W/m² | - |
| 1778158894 | 11.67° C | 99% | 1013.4 hPa | 0 mm | - | 47 W/m² | - |
| 1778155290 | 6.11° C | 99% | 1012.7 hPa | 0 mm | - | 24 W/m² | - |
| 1778151686 | 6.11° C | 99% | 1012.3 hPa | 0 mm | - | 0 W/m² | - |
| 1778148082 | 6.11° C | 99% | 1011.6 hPa | 0 mm | - | 0 W/m² | - |
| 1778144479 | 6.67° C | 99% | 1011 hPa | 0 mm | - | 0 W/m² | - |
| 1778140874 | 7.78° C | 99% | 1010.6 hPa | 0 mm | - | 0 W/m² | - |
| 1778137275 | 8.89° C | 99% | 1010.5 hPa | 0 mm | - | 0 W/m² | - |
| 1778133671 | 8.89° C | 99% | 1010.6 hPa | 0 mm | - | 0 W/m² | - |
| 1778130068 | 10° C | 99% | 1010.5 hPa | 0 mm | - | 0 W/m² | - |
| 1778126469 | 10° C | 99% | 1010.3 hPa | 0 mm | - | 0 W/m² | - |
| 1778122867 | 10.56° C | 99% | 1009.9 hPa | 0 mm | - | 0 W/m² | - |
| 1778119263 | 10.56° C | 99% | 1009.1 hPa | 0 mm | - | 0 W/m² | - |
| 1778115658 | 11.11° C | 99% | 1009.3 hPa | 0 mm | - | 0 W/m² | - |
| 1778112057 | 12.22° C | 97% | 1009 hPa | 0 mm | - | 0 W/m² | - |
| 1778108457 | 12.22° C | 99% | 1008.4 hPa | 0 mm | - | 0 W/m² | - |
| 1778104857 | 12.78° C | 99% | 1007.5 hPa | 0 mm | - | 0 W/m² | - |
| 1778101253 | 13.33° C | 99% | 1006.9 hPa | 0 mm | - | 45 W/m² | - |
| 1778097650 | 14.44° C | 99% | 1007 hPa | 0 mm | - | 32 W/m² | - |
| 1778094047 | 15° C | 99% | 1006.4 hPa | 0 mm | - | 67 W/m² | - |
| 1778090446 | 15° C | 99% | 1006 hPa | 1.27 mm | - | 55 W/m² | - |
| 1778086841 | 14.44° C | 99% | 1005.9 hPa | 0 mm | - | 178 W/m² | - |
| 1778083240 | 13.89° C | 99% | 1005.5 hPa | 1.27 mm | - | 43 W/m² | - |
| 1778079640 | 12.78° C | 99% | 1004.9 hPa | 6.1 mm | - | 36 W/m² | - |
* Rain latest hour (hover to see other rain measurements)
** Current wind speed in m/s (hover to see current wind gust speed)